[[{"header":{"parameterUnit":"m.s-1","parameterCategory":1,"la1":30.2991,"la2":30.254,"lo1":-89.0895,"lo2":-89.0444,"dy":0.0017,"dx":0.0017,"nx":28,"ny":28,"refTime":"2025-08-08T09:00:00:Z","depth":0,"parameterNumber":2,"parameterNumberName":"U-component_of_WINDS"},"data":[0,0,0,0,0,0,0,0,0,0,0,0,0,0,0,0,0,0,0,0,0,0,0,0,0,0,0,0,0,0,0,0,0,0,0,0,0,0,0,0,0,0,0,0,0,0,0,0,0,0,0,0,0,0,0,0,0,0,-1.9686,-1.9686,0,-1.9692,-1.9692,-1.9692,-1.9593,-1.959,-1.9588,-1.9585,-1.9593,-1.9595,-1.9598,0,0,0,0,0,0,0,0,0,0,0,0,0,-1.9591,-1.9593,-1.9686,-1.9686,-1.9686,-1.9692,-1.9692,-1.9692,-1.9594,-1.959,-1.9587,-1.9584,-1.9592,-1.9595,-1.9598,0,0,0,0,0,0,0,0,0,0,0,0,0,-1.9618,-1.9594,-1.9686,-1.9638,-1.9634,-1.9692,-1.9692,-1.9692,-1.9594,-1.959,-1.9586,-1.9582,-1.9591,-1.9595,-1.9599,-1.9704,0,0,-1.9611,-1.9613,0,0,0,0,0,0,0,0,-1.9617,-1.9622,-1.9645,-1.9641,-1.9637,-1.9637,-1.9661,-1.9696,-1.9595,-1.9609,-1.9585,-1.9581,-1.9611,-1.9613,-1.9623,-1.9704,-1.9705,-1.9612,-1.9614,-1.9616,-1.9617,0,0,0,0,0,0,0,-1.9615,-1.9621,-1.9688,-1.9645,-1.964,-1.9616,-1.9616,-1.9667,-1.9633,-1.9608,-1.9601,-1.9602,-1.9608,-1.9619,-1.9623,-1.9705,-1.9611,-1.9615,-1.9617,-1.9619,-1.9872,-1.9876,0,0,0,0,0,0,-1.962,-1.962,-1.9688,-1.9688,-1.9617,-1.9621,-1.962,-1.9641,-1.9632,-1.9626,-1.9606,-1.9598,-1.9615,-1.9618,-1.9622,-1.9745,-1.9616,-1.9619,-1.9622,-1.9867,-1.9872,-1.9877,0,0,0,0,0,0,-1.9618,-1.9627,-1.9688,-1.9652,-1.9658,-1.9627,-1.9651,-1.9644,-1.9655,-1.963,-1.9624,-1.9624,-1.9612,-1.9617,-1.9684,-1.9744,-1.9621,-1.9625,-1.9862,-1.9869,-1.9875,-1.999,0,0,0,0,0,0,-1.9616,-1.9627,-1.9666,-1.9654,-1.9661,-1.975,-1.9655,-1.9647,-1.9662,-1.9651,-1.9646,-1.9641,-1.9609,-1.9679,-1.9688,-1.9747,-1.9628,-1.9857,-1.9865,-1.9873,-1.9981,-2.0,-2.0016,0,0,0,0,0,-1.9613,-1.9699,-1.9669,-1.9678,-1.9709,-1.9753,-1.9757,-1.9718,-1.9667,-1.9707,-1.9691,-1.9641,-1.9735,-1.9686,-1.9696,-1.9757,-1.9853,-1.9863,-1.9872,-1.9973,-1.9996,-2.0016,0,0,0,0,0,0,-1.972,-1.9697,-1.9663,-1.9748,-1.9753,-1.9737,-1.9786,-1.9744,-1.9764,-1.9754,-1.9705,-1.9704,-1.978,-1.9775,-1.9721,-1.9858,-1.9785,-1.9797,-1.9859,-1.988,-1.9897,-1.9897,-1.9631,0,0,0,0,0,-1.9754,-1.9791,-1.9768,-1.9846,-1.985,-1.9818,-1.9835,-1.9804,-1.9808,-1.981,-1.9799,-1.9806,-1.9836,-1.9858,-1.9885,-1.9979,-1.9977,-2.0026,-2.0043,-2.0058,-2.0069,-2.0119,-2.014,-1.9909,-1.9909,-1.9908,0,0,-1.9824,-1.9815,-1.9842,-1.9867,-1.9868,-1.9908,-1.982,-1.9866,-1.9896,-1.9817,-1.988,-1.9872,-1.9876,-1.9957,-1.9993,-1.9956,-2.0132,-2.007,-2.0082,-2.0085,-2.0131,-2.0153,-2.0172,-1.9915,-1.9914,-1.9913,0,0,-1.9972,-1.9969,-2.0033,-2.0035,-2.0036,-2.0014,-2.0029,-2.0019,-2.001,-2.0072,-2.0014,-2.0048,-2.0102,-2.0107,-2.0116,-2.0265,-2.022,-2.0275,-2.0366,-2.0415,-2.0433,-2.0449,-2.0502,-2.0522,-2.0286,-2.0286,-2.0286,0,-2.0059,-2.0116,-2.0071,-2.0121,-2.0134,-2.0063,-2.0128,-2.0132,-2.0143,-2.0153,-2.0111,-2.0177,-2.0174,-2.0256,-2.0292,-2.0302,-2.0318,-2.0276,-2.0434,-2.045,-2.0464,-2.0514,-2.0534,-2.0293,-2.0292,-2.0291,-2.0291,0,-2.0223,-2.0264,-2.0315,-2.0326,-2.0344,-2.0402,-2.0365,-2.0389,-2.0356,-2.0338,-2.0402,-2.0396,-2.042,-2.0437,-2.0406,-2.0514,-2.0491,-2.0443,-2.0369,-2.0494,-2.054,-2.0559,-2.0303,-2.03,-2.0298,-2.0296,0,0,-2.0441,-2.0425,-2.0445,-2.0449,-2.0444,-2.0475,-2.0528,-2.0551,-2.0573,-2.0582,-2.0626,-2.0673,-2.0627,-2.0638,-2.0607,-2.0649,-2.0767,-2.0595,-2.0594,-2.0628,-2.0886,-2.0923,-2.0946,-2.0736,-2.074,-2.0743,-2.0885,0,-2.0585,-2.0675,-2.0635,-2.0729,-2.0766,-2.0699,-2.0746,-2.0748,-2.0733,-2.0762,-2.0744,-2.0778,-2.0716,-2.0722,-2.0761,-2.0745,-2.0818,-2.0733,-2.0777,-2.0779,-2.0779,-2.097,-2.1009,-2.1144,-2.0903,-2.0906,-2.0908,0,-2.0765,-2.0781,-2.0879,-2.0867,-2.0881,-2.0923,-2.0941,-2.0969,-2.097,-2.0956,-2.0968,-2.0926,-2.0977,-2.0903,-2.0973,-2.0917,-2.0932,-2.0927,-2.0931,-2.0934,-2.0852,-2.0979,-2.1186,-2.1207,-2.0936,-2.0934,-2.0932,0,-2.0914,-2.096,-2.1024,-2.1029,-2.1017,-2.1049,-2.1045,-2.1042,-2.1058,-2.1073,-2.1083,-2.1105,-2.1117,-2.1134,-2.11,-2.1049,-2.1175,-2.1098,-2.1165,-2.1166,-2.1195,-2.1194,-2.1409,-2.1204,-2.1204,-2.1204,-2.1203,0,-2.108,-2.1142,-2.1091,-2.1131,-2.1198,-2.1152,-2.122,-2.121,-2.1207,-2.1244,-2.1187,-2.1223,-2.1174,-2.1205,-2.1178,-2.1241,-2.1247,-2.1237,-2.1229,-2.1242,-2.1244,-2.1252,-2.1242,-2.1209,-2.1208,-2.1207,-2.1206,0,-2.1258,-2.1226,-2.1292,-2.1274,-2.1271,-2.1322,-2.1307,-2.1343,-2.1323,-2.137,-2.1378,-2.1347,-2.138,-2.1346,-2.1378,-2.136,-2.1444,-2.1422,-2.1443,-2.1437,-2.1506,-2.1501,-2.1735,-2.1763,-2.154,-2.1543,-2.1544,0,-2.1366,-2.1413,-2.14,-2.142,-2.1419,-2.1452,-2.1468,-2.1424,-2.1442,-2.1447,-2.1482,-2.151,-2.1531,-2.1587,-2.1567,-2.1591,-2.1569,-2.165,-2.1573,-2.1584,-2.1571,-2.1569,-2.1573,-2.1666,-2.1669,-2.1671,-2.1672,0,-2.1561,-2.1543,-2.1567,-2.1586,-2.1606,-2.1619,-2.1628,-2.1648,-2.1602,-2.1626,-2.1658,-2.1674,-2.1705,-2.1734,-2.1751,-2.1748,-2.1703,-2.1697,-2.1713,-2.1728,-2.1738,-2.1734,-2.1487,-2.1692,-2.169,-2.1688,-2.1687,-2.1687,-2.1708,-2.1746,-2.1742,-2.1771,-2.1773,-2.1782,-2.1815,-2.1798,-2.1824,-2.1846,-2.1818,-2.1859,-2.1858,-2.1876,-2.1878,-2.1909,-2.1875,-2.1899,-2.1905,-2.1912,-2.1923,-2.1733,-2.1912,-2.1911,-2.1911,-2.191,-2.191,0,-2.19,-2.1894,-2.1921,-2.1935,-2.1957,-2.1912,-2.1919,-2.1941,-2.1977,-2.198,-2.2,-2.2038,-2.2065,-2.2047,-2.207,-2.2099,-2.2079,-2.2106,-2.2104,-2.2104,-2.1952,-2.1935,-2.2122,-2.2122,-2.2122,-2.2122,-2.2122,-2.2122,-2.2003,-2.2064,-2.2045,-2.2107,-2.21,-2.2139,-2.2147,-2.2155,-2.2157,-2.2201,-2.2223,-2.221,-2.2205,-2.2227,-2.225,-2.2244,-2.2255,-2.2291,-2.2277,-2.2136,-2.2115,-2.2095,-2.2079,-2.2293,-2.2293,-2.2427,-2.2428,-2.2429]},{"header":{"parameterUnit":"m.s-1","parameterCategory":1,"la1":30.2991,"la2":30.254,"lo1":-89.0895,"lo2":-89.0444,"dy":0.0017,"dx":0.0017,"nx":28,"ny":28,"refTime":"2025-08-08T09:00:00:Z","depth":0,"parameterNumber":3,"parameterNumberName":"V-component_of_WINDS"},"data":[0,0,0,0,0,0,0,0,0,0,0,0,0,0,0,0,0,0,0,0,0,0,0,0,0,0,0,0,0,0,0,0,0,0,0,0,0,0,0,0,0,0,0,0,0,0,0,0,0,0,0,0,0,0,0,0,0,0,-2.3044,-2.3045,0,-2.3129,-2.313,-2.3131,-2.3129,-2.3128,-2.3127,-2.3126,-2.3213,-2.3217,-2.322,0,0,0,0,0,0,0,0,0,0,0,0,0,-2.2879,-2.2882,-2.3044,-2.3045,-2.3046,-2.3129,-2.313,-2.3131,-2.313,-2.3128,-2.3127,-2.3126,-2.3212,-2.3216,-2.322,0,0,0,0,0,0,0,0,0,0,0,0,0,-2.2956,-2.2883,-2.3044,-2.3055,-2.3057,-2.3129,-2.313,-2.3132,-2.313,-2.3128,-2.3127,-2.3125,-2.3211,-2.3216,-2.3221,-2.3287,0,0,-2.3236,-2.3239,0,0,0,0,0,0,0,0,-2.2952,-2.2962,-2.3053,-2.3055,-2.3057,-2.3117,-2.3104,-2.3184,-2.313,-2.3102,-2.3126,-2.3124,-2.3183,-2.319,-2.321,-2.3291,-2.3295,-2.3237,-2.324,-2.3242,-2.3244,0,0,0,0,0,0,0,-2.2946,-2.2959,-2.3078,-2.3054,-2.3057,-2.3056,-2.3065,-2.3119,-2.3151,-2.3105,-2.3105,-2.3115,-2.3184,-2.3205,-2.3212,-2.3296,-2.3237,-2.3241,-2.3244,-2.3246,-2.3434,-2.3436,0,0,0,0,0,0,-2.2939,-2.2954,-2.3075,-2.308,-2.2999,-2.306,-2.307,-2.3099,-2.3151,-2.3157,-2.3116,-2.3114,-2.3197,-2.3206,-2.3215,-2.3295,-2.3242,-2.3247,-2.325,-2.3432,-2.3434,-2.3436,0,0,0,0,0,0,-2.2935,-2.295,-2.3072,-2.3017,-2.3033,-2.3065,-2.3098,-2.3102,-2.3123,-2.3159,-2.3165,-2.3132,-2.3196,-2.3208,-2.3269,-2.3298,-2.3249,-2.3254,-2.343,-2.3433,-2.3435,-2.3455,0,0,0,0,0,0,-2.2931,-2.2948,-2.2974,-2.3018,-2.3036,-2.3124,-2.3099,-2.3105,-2.3132,-2.3131,-2.3176,-2.3182,-2.3196,-2.3261,-2.3274,-2.3304,-2.3258,-2.3427,-2.3431,-2.3434,-2.3452,-2.3458,-2.3464,0,0,0,0,0,-2.2925,-2.2976,-2.2975,-2.299,-2.3068,-2.3126,-2.3136,-2.3151,-2.3134,-2.316,-2.3183,-2.318,-2.3292,-2.3267,-2.3281,-2.3314,-2.3426,-2.343,-2.3434,-2.3449,-2.3457,-2.3464,0,0,0,0,0,0,-2.2936,-2.2982,-2.2982,-2.3049,-2.3084,-2.3126,-2.3159,-2.3159,-2.3199,-2.3196,-2.3213,-2.3223,-2.3283,-2.3305,-2.3276,-2.3379,-2.3357,-2.3364,-2.3363,-2.3371,-2.3377,-2.3371,-2.3262,0,0,0,0,0,-2.2946,-2.2989,-2.3027,-2.3083,-2.31,-2.3127,-2.3152,-2.3161,-2.3197,-2.3211,-2.3239,-2.3274,-2.3317,-2.3345,-2.3387,-2.3455,-2.3464,-2.3484,-2.349,-2.3494,-2.3501,-2.3537,-2.3546,-2.3451,-2.3451,-2.3451,0,0,-2.2968,-2.2998,-2.3025,-2.3086,-2.3114,-2.3157,-2.3139,-2.3186,-2.3219,-2.3219,-2.3278,-2.3299,-2.3339,-2.3404,-2.3433,-2.3423,-2.3529,-2.35,-2.3503,-2.3507,-2.3543,-2.3552,-2.356,-2.3454,-2.3453,-2.3453,0,0,-2.303,-2.3057,-2.3107,-2.3134,-2.3176,-2.3193,-2.3205,-2.3246,-2.326,-2.332,-2.332,-2.3359,-2.3433,-2.3461,-2.3486,-2.3557,-2.3555,-2.357,-2.36,-2.3636,-2.3643,-2.365,-2.3675,-2.3684,-2.3576,-2.3576,-2.3576,0,-2.3051,-2.3118,-2.3132,-2.3179,-2.3206,-2.3207,-2.3257,-2.3283,-2.3336,-2.3355,-2.3342,-2.3434,-2.3462,-2.3532,-2.3549,-2.3569,-2.3583,-2.3565,-2.3641,-2.3648,-2.3655,-2.3679,-2.3688,-2.3577,-2.3577,-2.3577,-2.3577,0,-2.3142,-2.3188,-2.3222,-2.3273,-2.3304,-2.3352,-2.3373,-2.3402,-2.3408,-2.3425,-2.3485,-2.3518,-2.3566,-2.3583,-2.3589,-2.3654,-2.3647,-2.3638,-2.3615,-2.3665,-2.3688,-2.3697,-2.3579,-2.3579,-2.3578,-2.3578,0,0,-2.3214,-2.3271,-2.3284,-2.3307,-2.3352,-2.3388,-2.3435,-2.3482,-2.3506,-2.3543,-2.3583,-2.3645,-2.3636,-2.3663,-2.3672,-2.3704,-2.3757,-2.3691,-2.3692,-2.3702,-2.383,-2.3837,-2.3847,-2.3756,-2.3758,-2.3759,-2.3827,0,-2.3281,-2.3366,-2.3379,-2.3454,-2.3496,-2.3497,-2.3539,-2.3571,-2.3588,-2.3626,-2.3646,-2.3689,-2.3675,-2.3691,-2.3722,-2.3744,-2.3783,-2.3739,-2.3793,-2.3795,-2.3783,-2.3859,-2.3867,-2.3929,-2.3836,-2.3837,-2.3838,0,-2.337,-2.3408,-2.3487,-2.3525,-2.3544,-2.3581,-2.3624,-2.366,-2.3696,-2.3707,-2.3737,-2.3741,-2.379,-2.3766,-2.3833,-2.3803,-2.3826,-2.384,-2.3842,-2.3848,-2.382,-2.3867,-2.3949,-2.3958,-2.3853,-2.3851,-2.385,0,-2.3414,-2.3485,-2.3541,-2.3561,-2.3607,-2.3633,-2.3654,-2.3688,-2.3715,-2.3752,-2.377,-2.3813,-2.3836,-2.3869,-2.3885,-2.3865,-2.3951,-2.3928,-2.3961,-2.3961,-2.3979,-2.3978,-2.4066,-2.3994,-2.3994,-2.3994,-2.3993,0,-2.3487,-2.3535,-2.3562,-2.3596,-2.365,-2.3664,-2.3717,-2.3737,-2.3767,-2.3805,-2.3808,-2.3844,-2.3863,-2.3901,-2.3914,-2.3967,-2.3978,-2.3988,-2.3991,-2.3988,-2.3986,-2.4003,-2.3999,-2.3996,-2.3996,-2.3995,-2.3995,0,-2.3546,-2.3566,-2.3627,-2.3666,-2.3676,-2.3714,-2.3747,-2.378,-2.3797,-2.3845,-2.3857,-2.3884,-2.3929,-2.3948,-2.4003,-2.4012,-2.4073,-2.4073,-2.4061,-2.4062,-2.4094,-2.4091,-2.4196,-2.4211,-2.4129,-2.4129,-2.413,0,-2.3592,-2.3628,-2.3671,-2.3696,-2.3718,-2.3759,-2.3786,-2.3801,-2.3829,-2.3872,-2.39,-2.3945,-2.3982,-2.4053,-2.4078,-2.412,-2.412,-2.4154,-2.4127,-2.4122,-2.4121,-2.4118,-2.4122,-2.416,-2.416,-2.4161,-2.4162,0,-2.367,-2.3677,-2.3716,-2.3758,-2.379,-2.3824,-2.3857,-2.3878,-2.3898,-2.3929,-2.3975,-2.4004,-2.406,-2.4104,-2.4147,-2.4168,-2.4168,-2.417,-2.418,-2.4177,-2.4169,-2.4173,-2.4075,-2.4168,-2.4167,-2.4167,-2.4166,-2.4166,-2.3723,-2.3756,-2.379,-2.3833,-2.3859,-2.389,-2.3923,-2.3943,-2.3982,-2.4028,-2.4035,-2.4084,-2.4118,-2.4176,-2.4198,-2.4236,-2.4228,-2.4242,-2.4246,-2.4249,-2.4251,-2.4162,-2.4244,-2.4244,-2.4244,-2.4244,-2.4244,0,-2.3801,-2.3823,-2.3863,-2.3908,-2.3942,-2.3938,-2.3974,-2.4003,-2.4045,-2.4077,-2.4113,-2.4165,-2.4208,-2.4235,-2.4278,-2.4303,-2.4304,-2.4314,-2.4312,-2.4317,-2.4257,-2.4244,-2.4312,-2.4312,-2.4312,-2.4312,-2.4312,-2.4312,-2.3846,-2.39,-2.3912,-2.3979,-2.4,-2.4048,-2.4069,-2.4097,-2.4122,-2.418,-2.4215,-2.4232,-2.4262,-2.4307,-2.4346,-2.4352,-2.4368,-2.4378,-2.4384,-2.4328,-2.4321,-2.4314,-2.4302,-2.4381,-2.4382,-2.4441,-2.4442,-2.4442]}]]